Regional Weather Roundup
Issued by NWS Cleveland, OH

Home | Current Version | Previous Version | Text Only | Print | Product List | Glossary On
Versions: 1 2 3 4 5 6 7 8 9 10 11 12 13 14 15 16 17 18 19 20 21 22 23 24 25 26 27 28 29 30 31 32 33 34 35 36 37 38 39 40 41 42 43 44 45 46 47 48 49 50
000
ASUS41 KCLE 272200
RWRCLE
OHIO REGIONAL WEATHER ROUNDUP
NATIONAL WEATHER SERVICE WILMINGTON, OH
600 PM EDT THU APR 27 2017

NOTE: "FAIR" INDICATES FEW OR NO CLOUDS BELOW 12,000 FEET WITH NO
SIGNIFICANT WEATHER AND/OR OBSTRUCTIONS TO VISIBILITY.

OHZ001>008-015>018-024>027-034-035-043-044-272300-
   NORTHWEST OHIO

CITY           SKY/WX    TMP DP  RH WIND       PRES   REMARKS
DEFIANCE       CLOUDY    54  42  64 SW12G20   29.73R
FINDLAY        PTSUNNY   61  44  53 W24G35    29.71R
TOLEDO EXPRESS CLOUDY    57  44  62 W25G35    29.70R
TOLEDO EXEC    PTSUNNY   60  45  57 SW21G35   29.69R
LIMA           FAIR      60  46  59 W26G32    29.73R
$$

OHZ009>014-019>023-028>033-038-089-272300-
   NORTHEAST OHIO

CITY           SKY/WX    TMP DP  RH WIND       PRES   REMARKS
CLE-HOPKINS    PTSUNNY   71  55  56 W17G24    29.65R
CLE-LAKEFRONT  PTSUNNY   59  54  83 W10       29.63R THUNDER
CUY CO. ARPT   LGT RAIN  64  55  72 W17G29    29.66R
LORAIN-ELYRIA  PTSUNNY   68  50  52 W18G30    29.65R
ASHTABULA      CLOUDY    66  62  87 W7        29.61F
AKRON-CANTON   TSTM      70  56  61 W29G40    29.65R
WOOSTER        FAIR      67  57  70 W14       29.66R
MANSFIELD      FAIR      68  52  56 W16G28    29.67R
YOUNGSTOWN     TSTM      63  60  90 SW7       29.64R FOG
$$

OHZ042-051>053-060>062-070>072-077>081-272300-
  SOUTHWEST OHIO

CITY           SKY/WX    TMP DP  RH WIND       PRES   REMARKS
CINC-COVINGTON PTSUNNY   61  47  59 SW12G21   29.79R
CINC-LUNKEN    FAIR      64  50  60 W13G23    29.79R
HAMILTON       FAIR      65  48  54 W14G22    29.78R
DAYTON         NOT AVBL
WRIGHT-PAT AFB CLOUDY    64  46  51 SW17G24   29.75R
DAYTON GENERAL FAIR      63  46  54 SW13G24   29.76R
WILMINGTON     FAIR      64  50  60 W25G31    29.75R
$$

OHZ036-037-039>041-045>050-054>059-063>069-073>076-082>088-272300-
  CENTRAL AND SOUTHEAST OHIO

CITY           SKY/WX    TMP DP  RH WIND       PRES   REMARKS
COLUMBUS       PTSUNNY   71  52  50 W23G31    29.70R
OSU AIRPORT    FAIR      68  52  56 W21G31    29.71R
BOLTON FIELD   SUNNY     70  52  52 W18G24    29.72R
RICKENBACK AFB NOT AVBL
NEWARK         FAIR      71  54  54 W20G32    29.68R
MARION         FAIR      66  46  48 W18G29    29.71R
LANCASTER      FAIR      72  55  55 W20G29    29.71R
ZANESVILLE     FAIR      74  56  53 W16G28    29.67R
NEW PHILLY     FAIR      78  55  44 W14G23    29.65R
$$



USA.gov is the U.S. government's official web portal to all federal, state and local government web resources and services.